User: anonymous   Login
Location: Al Mulaqqa?ah
(24.1833°N, 32.8833°E)
Time: 14:55:09
(UTC+00:00)
Language:

GPS 2-18 Rocket1 - Orbit

View from above orbital plane
View from above orbital plane
View from above satellite
View from above satellite

Ground track
Ground track

The orbit data is extracted from the following two-line orbital elements,

1 22447U 93007B   21330.62546492  .00005290  00000-0  16021-3 0  9994
2 22447  20.8532  84.0886 0037705 202.3633 157.5166 15.28533047581380
Epoch (UTC): 26 November 2021 15:00:40
Eccentricity: 0.0037705
inclination: 20.8532°
perigee height: 454 km
apogee height: 506 km
right ascension of ascending node: 84.0886°
argument of perigee: 202.3633°
revolutions per day: 15.28533047
mean anomaly at epoch: 157.5166°
orbit number at epoch: 58138

The dashed part of the orbit path shows where the satellite is in the earth's shadow,  

DLR